If you wish to contribute or participate in the discussions about articles you are invited to join SKYbrary as a registered user

 Actions

Carlos Prates Airport

From SKYbrary Wiki

SBPR
Airport
ICAO: SBPR
Summary
Name Carlos Prates Airport
Region South America and Caribbean
Territory Brazil BR.gif
Location Carlos Prates, Minas Gerais
Serving Belo Horizonte
Elevation 927.811 m
3,044 ft927.811 m
Coordinates 19° 54' 33.01" S, 43° 59' 21.01" W
Runways
Designator Length Width Surface ROPS
9/27 928 m3,044.619 ft
18 m59.055 ft
ASP /


METAR
Observation SBPR 252100Z 34004KT 9999 FEW030 FEW035TCU SCT090 26/21 Q1016
Station BELO HORIZONTE
Date/Time 25 February 2020 21:00:00
Wind direction 340°
Wind speed 04 kts
Lowest cloud amount few clouds
Temperature 26°C
Dew point 21°C
Humidity 74%
QNH 1016 hPa
Weather condition n/a

Carlos Prates Airport is one of the airports serving Belo Horizonte, Brazil. It is named after the neighborhood where it is located.

Climatology

Humid subtropical climate (Köppen climate classification Cwa)

Maps

Terrain

Loading map...

Airport Layout

Loading map...


Accidents & Serious Incidents at or in vicinity of SBPR

None on SKYbrary